Time,TemperatureF,DewpointF,PressureIn,WindDirection,WindDirectionDegrees,WindSpeedMPH,WindSpeedGustMPH,Humidity,HourlyPrecipIn,Conditions,Clouds,dailyrainin,SoftwareType,DateUTC
2013-03-09 00:02:00,39.7,37.0,30.04,ENE,61,12.0,12.0,90,0.00,,,0.00,meteohub,2013-03-09 08:02:00,
2013-03-09 00:07:00,41.9,37.8,30.04,NE,42,10.0,14.0,85,0.00,,,0.00,meteohub,2013-03-09 08:07:00,
2013-03-09 00:12:00,42.8,37.4,30.04,NE,40,11.0,14.0,81,0.00,,,0.00,meteohub,2013-03-09 08:12:00,
2013-03-09 00:17:00,43.2,37.4,30.04,NE,53,9.0,14.0,80,0.00,,,0.00,meteohub,2013-03-09 08:17:00,
2013-03-09 00:22:00,43.3,37.2,30.04,ENE,66,9.0,14.0,79,0.00,,,0.00,meteohub,2013-03-09 08:22:00,
2013-03-09 00:27:00,43.3,37.2,30.04,NE,55,8.0,17.0,79,0.00,,,0.00,meteohub,2013-03-09 08:27:00,
2013-03-09 00:32:00,43.3,36.9,30.05,NE,35,8.0,17.0,78,0.00,,,0.00,meteohub,2013-03-09 08:32:00,
2013-03-09 00:37:00,43.5,36.9,30.05,NE,44,6.0,17.0,77,0.00,,,0.00,meteohub,2013-03-09 08:37:00,
2013-03-09 00:42:00,43.5,36.9,30.06,ENE,65,5.0,13.0,77,0.00,,,0.00,meteohub,2013-03-09 08:42:00,
2013-03-09 00:47:00,43.5,36.5,30.06,ENE,59,9.0,11.0,76,0.00,,,0.00,meteohub,2013-03-09 08:47:00,
2013-03-09 00:52:00,43.9,36.5,30.06,NNE,19,5.0,12.0,75,0.00,,,0.00,meteohub,2013-03-09 08:52:00,
2013-03-09 00:57:00,44.1,36.7,30.06,NE,51,5.0,12.0,75,0.00,,,0.00,meteohub,2013-03-09 08:57:00,
2013-03-09 01:02:00,44.2,36.5,30.06,NE,42,5.0,13.0,74,0.00,,,0.00,meteohub,2013-03-09 09:02:00,
2013-03-09 01:07:00,44.6,36.5,30.07,NNE,26,7.0,13.0,73,0.00,,,0.00,meteohub,2013-03-09 09:07:00,
2013-03-09 01:12:00,44.8,36.3,30.07,NE,56,7.0,13.0,72,0.00,,,0.00,meteohub,2013-03-09 09:12:00,
2013-03-09 01:17:00,45.0,36.5,30.07,NNE,31,10.0,12.0,72,0.00,,,0.00,meteohub,2013-03-09 09:17:00,
2013-03-09 01:22:00,45.1,36.3,30.07,NE,51,5.0,12.0,71,0.00,,,0.00,meteohub,2013-03-09 09:22:00,
2013-03-09 01:27:00,45.1,36.3,30.07,NE,49,8.0,12.0,71,0.00,,,0.00,meteohub,2013-03-09 09:27:00,
2013-03-09 01:32:00,45.3,36.5,30.08,NE,40,8.0,15.0,71,0.00,,,0.00,meteohub,2013-03-09 09:32:00,
2013-03-09 01:37:00,45.5,36.3,30.08,NE,50,8.0,15.0,70,0.00,,,0.00,meteohub,2013-03-09 09:37:00,
2013-03-09 01:42:00,45.7,36.5,30.08,NE,39,7.0,15.0,70,0.00,,,0.00,meteohub,2013-03-09 09:42:00,
2013-03-09 01:47:00,45.7,36.1,30.08,NE,56,9.0,13.0,69,0.00,,,0.00,meteohub,2013-03-09 09:47:00,
2013-03-09 01:52:00,45.7,36.1,30.08,ENE,59,5.0,12.0,69,0.00,,,0.00,meteohub,2013-03-09 09:52:00,
2013-03-09 01:57:00,45.7,36.1,30.08,ENE,59,11.0,12.0,69,0.00,,,0.00,meteohub,2013-03-09 09:57:00,
2013-03-09 02:02:00,45.7,36.1,30.09,NE,55,5.0,11.0,69,0.00,,,0.00,meteohub,2013-03-09 10:02:00,
2013-03-09 02:07:00,45.7,36.1,30.09,NE,55,5.0,11.0,69,0.00,,,0.00,meteohub,2013-03-09 10:07:00,
2013-03-09 02:12:00,45.7,36.1,30.09,ENE,76,4.0,11.0,69,0.00,,,0.00,meteohub,2013-03-09 10:12:00,
2013-03-09 02:17:00,45.7,35.8,30.09,NNE,26,4.0,10.0,68,0.00,,,0.00,meteohub,2013-03-09 10:17:00,
2013-03-09 02:22:00,45.5,36.0,30.09,NNE,25,6.0,10.0,69,0.00,,,0.00,meteohub,2013-03-09 10:22:00,
2013-03-09 02:27:00,45.3,35.8,30.09,ENE,63,5.0,10.0,69,0.00,,,0.00,meteohub,2013-03-09 10:27:00,
2013-03-09 02:32:00,45.3,35.4,30.09,NNE,31,6.0,10.0,68,0.00,,,0.00,meteohub,2013-03-09 10:32:00,
2013-03-09 02:37:00,45.3,35.8,30.09,NE,54,3.0,10.0,69,0.00,,,0.00,meteohub,2013-03-09 10:37:00,
2013-03-09 02:42:00,45.1,35.6,30.09,NE,56,5.0,10.0,69,0.00,,,0.00,meteohub,2013-03-09 10:42:00,
2013-03-09 02:47:00,45.5,36.0,30.09,NE,36,4.0,9.0,69,0.00,,,0.00,meteohub,2013-03-09 10:47:00,
2013-03-09 02:52:00,45.7,35.8,30.09,NNE,22,4.0,9.0,68,0.00,,,0.00,meteohub,2013-03-09 10:52:00,
2013-03-09 02:57:00,45.9,36.0,30.10,NE,56,5.0,8.0,68,0.00,,,0.00,meteohub,2013-03-09 10:57:00,
2013-03-09 03:02:00,46.0,36.1,30.10,NE,43,4.0,8.0,68,0.00,,,0.00,meteohub,2013-03-09 11:02:00,
2013-03-09 03:07:00,46.2,36.3,30.10,NNE,17,5.0,11.0,68,0.00,,,0.00,meteohub,2013-03-09 11:07:00,
2013-03-09 03:12:00,46.2,36.0,30.10,ENE,66,9.0,13.0,67,0.00,,,0.00,meteohub,2013-03-09 11:12:00,
2013-03-09 03:17:00,46.2,36.0,30.10,ENE,66,13.0,15.0,67,0.00,,,0.00,meteohub,2013-03-09 11:17:00,
2013-03-09 03:22:00,46.2,36.0,30.10,NE,55,9.0,15.0,67,0.00,,,0.00,meteohub,2013-03-09 11:22:00,
2013-03-09 03:27:00,46.2,36.0,30.10,NNE,27,10.0,15.0,67,0.00,,,0.00,meteohub,2013-03-09 11:27:00,
2013-03-09 03:32:00,46.0,35.8,30.10,NE,52,12.0,15.0,67,0.00,,,0.00,meteohub,2013-03-09 11:32:00,
2013-03-09 03:37:00,46.0,35.8,30.10,NNE,17,11.0,17.0,67,0.00,,,0.00,meteohub,2013-03-09 11:37:00,
2013-03-09 03:42:00,46.2,35.4,30.10,NE,34,7.0,17.0,66,0.00,,,0.00,meteohub,2013-03-09 11:42:00,
2013-03-09 03:47:00,46.2,35.4,30.10,NE,49,6.0,17.0,66,0.00,,,0.00,meteohub,2013-03-09 11:47:00,
2013-03-09 03:52:00,46.2,35.4,30.11,NE,44,7.0,17.0,66,0.00,,,0.00,meteohub,2013-03-09 11:52:00,
2013-03-09 03:57:00,46.2,35.4,30.11,NE,40,10.0,15.0,66,0.00,,,0.00,meteohub,2013-03-09 11:57:00,
2013-03-09 04:02:00,46.2,35.4,30.11,North,9,8.0,14.0,66,0.00,,,0.00,meteohub,2013-03-09 12:02:00,
2013-03-09 04:07:00,46.0,35.2,30.12,North,10,12.0,14.0,66,0.00,,,0.00,meteohub,2013-03-09 12:07:00,
2013-03-09 04:12:00,46.0,35.2,30.12,NE,46,5.0,14.0,66,0.00,,,0.00,meteohub,2013-03-09 12:12:00,
2013-03-09 04:17:00,46.0,34.9,30.12,NE,46,7.0,12.0,65,0.00,,,0.00,meteohub,2013-03-09 12:17:00,
2013-03-09 04:22:00,45.9,34.7,30.12,ENE,59,9.0,12.0,65,0.00,,,0.00,meteohub,2013-03-09 12:22:00,
2013-03-09 04:27:00,45.9,34.7,30.13,NE,34,9.0,12.0,65,0.00,,,0.00,meteohub,2013-03-09 12:27:00,
2013-03-09 04:32:00,45.9,34.3,30.13,NE,49,9.0,13.0,64,0.00,,,0.00,meteohub,2013-03-09 12:32:00,
2013-03-09 04:36:00,45.9,34.3,30.13,NE,49,9.0,14.0,64,0.00,,,0.00,meteohub,2013-03-09 12:36:00,
2013-03-09 04:41:00,45.9,34.3,30.13,NE,53,11.0,14.0,64,0.00,,,0.00,meteohub,2013-03-09 12:41:00,
2013-03-09 04:46:00,45.7,34.2,30.14,NNE,21,7.0,14.0,64,0.00,,,0.00,meteohub,2013-03-09 12:46:00,
2013-03-09 04:51:00,45.7,33.8,30.14,NE,39,7.0,13.0,63,0.00,,,0.00,meteohub,2013-03-09 12:51:00,
2013-03-09 04:56:00,45.7,33.4,30.14,NE,45,8.0,13.0,62,0.00,,,0.00,meteohub,2013-03-09 12:56:00,
2013-03-09 05:02:00,45.9,33.6,30.15,NNE,32,7.0,13.0,62,0.00,,,0.00,meteohub,2013-03-09 13:02:00,
2013-03-09 05:07:00,45.9,33.3,30.15,NE,55,10.0,13.0,61,0.00,,,0.00,meteohub,2013-03-09 13:07:00,
2013-03-09 05:12:00,45.9,33.3,30.16,NE,54,7.0,13.0,61,0.00,,,0.00,meteohub,2013-03-09 13:12:00,
2013-03-09 05:17:00,45.7,32.5,30.16,NE,49,6.0,13.0,60,0.00,,,0.00,meteohub,2013-03-09 13:17:00,
2013-03-09 05:22:00,45.9,32.7,30.16,NNE,17,4.0,13.0,60,0.00,,,0.00,meteohub,2013-03-09 13:22:00,
2013-03-09 05:27:00,45.9,32.7,30.17,NNE,26,9.0,11.0,60,0.00,,,0.00,meteohub,2013-03-09 13:27:00,
2013-03-09 05:32:00,45.7,32.5,30.17,NE,51,7.0,11.0,60,0.00,,,0.00,meteohub,2013-03-09 13:32:00,
2013-03-09 05:37:00,45.7,32.2,30.17,NE,51,9.0,12.0,59,0.00,,,0.00,meteohub,2013-03-09 13:37:00,
2013-03-09 05:42:00,45.9,32.4,30.17,NE,49,11.0,15.0,59,0.00,,,0.00,meteohub,2013-03-09 13:42:00,
2013-03-09 05:47:00,45.9,32.0,30.18,NE,38,8.0,15.0,58,0.00,,,0.00,meteohub,2013-03-09 13:47:00,
2013-03-09 05:52:00,45.9,32.0,30.18,NE,34,7.0,15.0,58,0.00,,,0.00,meteohub,2013-03-09 13:52:00,
2013-03-09 05:57:00,46.0,31.6,30.18,NNE,32,6.0,14.0,57,0.00,,,0.00,meteohub,2013-03-09 13:57:00,
2013-03-09 06:02:00,46.0,31.3,30.19,NNE,32,8.0,14.0,56,0.00,,,0.00,meteohub,2013-03-09 14:02:00,
2013-03-09 06:07:00,46.2,31.5,30.19,NE,55,5.0,14.0,56,0.00,,,0.00,meteohub,2013-03-09 14:07:00,
2013-03-09 06:12:00,46.0,31.3,30.19,NNE,32,9.0,11.0,56,0.00,,,0.00,meteohub,2013-03-09 14:12:00,
2013-03-09 06:17:00,46.2,30.9,30.19,NE,51,6.0,11.0,55,0.00,,,0.00,meteohub,2013-03-09 14:17:00,
2013-03-09 06:22:00,46.2,30.9,30.19,NE,54,6.0,11.0,55,0.00,,,0.00,meteohub,2013-03-09 14:22:00,
2013-03-09 06:27:00,46.2,30.9,30.20,NE,53,4.0,11.0,55,0.00,,,0.00,meteohub,2013-03-09 14:27:00,
2013-03-09 06:32:00,46.0,30.4,30.20,NE,55,4.0,10.0,54,0.00,,,0.00,meteohub,2013-03-09 14:32:00,
2013-03-09 06:37:00,46.0,30.4,30.21,ENE,58,4.0,10.0,54,0.00,,,0.00,meteohub,2013-03-09 14:37:00,
2013-03-09 06:42:00,46.0,30.7,30.21,NE,42,4.0,8.0,55,0.00,,,0.00,meteohub,2013-03-09 14:42:00,
2013-03-09 06:47:00,45.9,30.2,30.21,NNW,346,4.0,8.0,54,0.00,,,0.00,meteohub,2013-03-09 14:47:00,
2013-03-09 06:52:00,45.9,30.2,30.22,NE,35,2.0,9.0,54,0.00,,,0.00,meteohub,2013-03-09 14:52:00,
2013-03-09 06:57:00,45.9,30.6,30.22,NE,42,3.0,9.0,55,0.00,,,0.00,meteohub,2013-03-09 14:57:00,
2013-03-09 07:02:00,45.9,30.6,30.22,NE,49,4.0,9.0,55,0.00,,,0.00,meteohub,2013-03-09 15:02:00,
2013-03-09 07:07:00,45.9,30.6,30.22,NNE,22,3.0,9.0,55,0.00,,,0.00,meteohub,2013-03-09 15:07:00,
2013-03-09 07:12:00,46.0,30.4,30.22,ENE,66,7.0,9.0,54,0.00,,,0.00,meteohub,2013-03-09 15:12:00,
2013-03-09 07:17:00,46.2,30.6,30.22,NNW,343,5.0,9.0,54,0.00,,,0.00,meteohub,2013-03-09 15:17:00,
2013-03-09 07:22:00,46.4,30.2,30.22,ENE,61,10.0,10.0,53,0.00,,,0.00,meteohub,2013-03-09 15:22:00,
2013-03-09 07:27:00,46.6,30.4,30.22,NE,53,6.0,12.0,53,0.00,,,0.00,meteohub,2013-03-09 15:27:00,
2013-03-09 07:32:00,46.9,30.7,30.23,North,9,8.0,12.0,53,0.00,,,0.00,meteohub,2013-03-09 15:32:00,
2013-03-09 07:37:00,47.1,30.4,30.23,NNE,24,5.0,12.0,52,0.00,,,0.00,meteohub,2013-03-09 15:37:00,
2013-03-09 07:42:00,47.1,30.9,30.24,NNE,30,10.0,12.0,53,0.00,,,0.00,meteohub,2013-03-09 15:42:00,
2013-03-09 07:47:00,47.1,30.4,30.24,NNE,26,4.0,12.0,52,0.00,,,0.00,meteohub,2013-03-09 15:47:00,
2013-03-09 07:52:00,47.3,31.1,30.24,NW,325,11.0,12.0,53,0.00,,,0.00,meteohub,2013-03-09 15:52:00,
2013-03-09 07:57:00,47.5,30.7,30.24,NNW,346,8.0,14.0,52,0.00,,,0.00,meteohub,2013-03-09 15:57:00,
2013-03-09 08:02:00,47.7,30.9,30.25,NE,53,7.0,14.0,52,0.00,,,0.00,meteohub,2013-03-09 16:02:00,
2013-03-09 08:07:00,47.8,31.1,30.25,NW,322,3.0,17.0,52,0.00,,,0.00,meteohub,2013-03-09 16:07:00,
2013-03-09 08:12:00,47.8,31.1,30.25,NE,40,6.0,17.0,52,0.00,,,0.00,meteohub,2013-03-09 16:12:00,
2013-03-09 08:17:00,47.8,31.5,30.25,NE,36,7.0,17.0,53,0.00,,,0.00,meteohub,2013-03-09 16:17:00,
2013-03-09 08:22:00,47.8,31.5,30.26,NNE,14,7.0,16.0,53,0.00,,,0.00,meteohub,2013-03-09 16:22:00,
2013-03-09 08:27:00,48.0,31.6,30.26,NE,36,5.0,15.0,53,0.00,,,0.00,meteohub,2013-03-09 16:27:00,
2013-03-09 08:32:00,48.0,31.6,30.27,NNE,21,9.0,16.0,53,0.00,,,0.00,meteohub,2013-03-09 16:32:00,
2013-03-09 08:37:00,48.0,31.6,30.27,NE,55,6.0,16.0,53,0.00,,,0.00,meteohub,2013-03-09 16:37:00,
2013-03-09 08:42:00,48.2,32.4,30.27,NE,34,7.0,16.0,54,0.00,,,0.00,meteohub,2013-03-09 16:42:00,
2013-03-09 08:47:00,48.4,32.5,30.27,NNE,32,11.0,16.0,54,0.00,,,0.00,meteohub,2013-03-09 16:47:00,
2013-03-09 08:52:00,48.2,32.4,30.27,NE,41,10.0,17.0,54,0.00,,,0.00,meteohub,2013-03-09 16:52:00,
2013-03-09 08:57:00,48.4,33.4,30.27,NE,55,8.0,17.0,56,0.00,,,0.00,meteohub,2013-03-09 16:57:00,
2013-03-09 09:02:00,48.6,34.0,30.27,North,5,7.0,17.0,57,0.00,,,0.00,meteohub,2013-03-09 17:02:00,
2013-03-09 09:07:00,48.7,33.8,30.27,NE,54,7.0,16.0,56,0.00,,,0.00,meteohub,2013-03-09 17:07:00,
2013-03-09 09:12:00,48.9,33.4,30.27,ENE,58,14.0,14.0,55,0.00,,,0.00,meteohub,2013-03-09 17:12:00,
2013-03-09 09:17:00,49.1,33.6,30.27,NNE,26,8.0,14.0,55,0.00,,,0.00,meteohub,2013-03-09 17:17:00,
2013-03-09 09:22:00,49.3,33.8,30.27,North,5,7.0,14.0,55,0.00,,,0.00,meteohub,2013-03-09 17:22:00,
2013-03-09 09:27:00,49.8,33.4,30.27,NE,53,6.0,19.0,53,0.00,,,0.00,meteohub,2013-03-09 17:27:00,
2013-03-09 09:32:00,50.2,33.6,30.27,NE,38,6.0,19.0,53,0.00,,,0.00,meteohub,2013-03-09 17:32:00,
2013-03-09 09:37:00,50.5,34.5,30.27,NNE,19,11.0,19.0,54,0.00,,,0.00,meteohub,2013-03-09 17:37:00,
2013-03-09 09:43:00,51.1,34.5,30.27,North,0,9.0,16.0,53,0.00,,,0.00,meteohub,2013-03-09 17:43:00,
2013-03-09 09:48:00,51.4,35.4,30.27,NNE,19,6.0,16.0,54,0.00,,,0.00,meteohub,2013-03-09 17:48:00,
2013-03-09 09:53:00,51.8,35.6,30.27,NE,37,8.0,14.0,54,0.00,,,0.00,meteohub,2013-03-09 17:53:00,
2013-03-09 09:58:00,52.3,34.7,30.27,NNW,342,9.0,16.0,51,0.00,,,0.00,meteohub,2013-03-09 17:58:00,
2013-03-09 10:03:00,53.1,33.4,30.27,NE,42,10.0,16.0,47,0.00,,,0.00,meteohub,2013-03-09 18:03:00,
2013-03-09 10:08:00,53.2,33.4,30.28,NNE,27,11.0,16.0,47,0.00,,,0.00,meteohub,2013-03-09 18:08:00,
2013-03-09 10:13:00,53.4,32.5,30.28,NE,51,7.0,16.0,45,0.00,,,0.00,meteohub,2013-03-09 18:13:00,
2013-03-09 10:18:00,54.0,32.5,30.28,NW,319,7.0,16.0,44,0.00,,,0.00,meteohub,2013-03-09 18:18:00,
2013-03-09 10:23:00,54.3,33.4,30.28,NNE,17,5.0,16.0,45,0.00,,,0.00,meteohub,2013-03-09 18:23:00,
2013-03-09 10:28:00,54.9,34.5,30.29,North,355,8.0,16.0,46,0.00,,,0.00,meteohub,2013-03-09 18:28:00,
2013-03-09 10:33:00,55.8,33.1,30.29,North,5,5.0,19.0,42,0.00,,,0.00,meteohub,2013-03-09 18:33:00,
2013-03-09 10:38:00,56.3,32.9,30.29,NW,321,5.0,19.0,41,0.00,,,0.00,meteohub,2013-03-09 18:38:00,
2013-03-09 10:43:00,56.7,34.3,30.29,NE,35,9.0,19.0,43,0.00,,,0.00,meteohub,2013-03-09 18:43:00,
2013-03-09 10:48:00,56.8,33.4,30.29,NE,50,5.0,15.0,41,0.00,,,0.00,meteohub,2013-03-09 18:48:00,
2013-03-09 10:53:00,57.2,32.5,30.29,North,355,5.0,15.0,39,0.00,,,0.00,meteohub,2013-03-09 18:53:00,
2013-03-09 10:58:00,57.7,33.6,30.29,NE,55,8.0,15.0,40,0.00,,,0.00,meteohub,2013-03-09 18:58:00,
2013-03-09 11:03:00,57.6,33.4,30.29,NNE,17,5.0,16.0,40,0.00,,,0.00,meteohub,2013-03-09 19:03:00,
2013-03-09 11:08:00,58.1,34.0,30.29,ENE,67,9.0,16.0,40,0.00,,,0.00,meteohub,2013-03-09 19:08:00,
2013-03-09 11:13:00,58.1,31.3,30.30,North,9,9.0,16.0,36,0.00,,,0.00,meteohub,2013-03-09 19:13:00,
2013-03-09 11:18:00,58.5,30.9,30.30,NE,49,12.0,13.0,35,0.00,,,0.00,meteohub,2013-03-09 19:18:00,
2013-03-09 11:23:00,58.6,33.1,30.30,NE,45,15.0,19.0,38,0.00,,,0.00,meteohub,2013-03-09 19:23:00,
2013-03-09 11:28:00,58.3,30.7,30.30,NE,34,7.0,19.0,35,0.00,,,0.00,meteohub,2013-03-09 19:28:00,
2013-03-09 11:33:00,58.6,32.4,30.30,NNW,331,5.0,19.0,37,0.00,,,0.00,meteohub,2013-03-09 19:33:00,
2013-03-09 11:38:00,59.2,30.0,30.30,NE,56,9.0,17.0,33,0.00,,,0.00,meteohub,2013-03-09 19:38:00,
2013-03-09 11:43:00,59.2,30.0,30.30,NE,42,6.0,19.0,33,0.00,,,0.00,meteohub,2013-03-09 19:43:00,
2013-03-09 11:48:00,59.4,29.5,30.30,North,11,7.0,19.0,32,0.00,,,0.00,meteohub,2013-03-09 19:48:00,
2013-03-09 11:53:00,59.5,31.8,30.30,NNW,342,9.0,19.0,35,0.00,,,0.00,meteohub,2013-03-09 19:53:00,
2013-03-09 11:58:00,59.5,28.0,30.30,North,350,7.0,17.0,30,0.00,,,0.00,meteohub,2013-03-09 19:58:00,
2013-03-09 12:03:00,59.5,28.9,30.30,NNE,22,10.0,17.0,31,0.00,,,0.00,meteohub,2013-03-09 20:03:00,
2013-03-09 12:08:00,59.7,28.9,30.30,NE,47,11.0,21.0,31,0.00,,,0.00,meteohub,2013-03-09 20:08:00,
2013-03-09 12:13:00,59.7,28.9,30.30,NNE,29,7.0,21.0,31,0.00,,,0.00,meteohub,2013-03-09 20:13:00,
2013-03-09 12:18:00,60.3,31.1,30.30,NE,42,4.0,21.0,33,0.00,,,0.00,meteohub,2013-03-09 20:18:00,
2013-03-09 12:23:00,60.4,29.7,30.30,NNE,33,4.0,20.0,31,0.00,,,0.00,meteohub,2013-03-09 20:23:00,
2013-03-09 12:28:00,60.6,32.2,30.30,NE,54,6.0,16.0,34,0.00,,,0.00,meteohub,2013-03-09 20:28:00,
2013-03-09 12:33:00,60.6,29.8,30.30,NE,35,8.0,18.0,31,0.00,,,0.00,meteohub,2013-03-09 20:33:00,
2013-03-09 12:38:00,60.6,30.6,30.30,NE,53,7.0,21.0,32,0.00,,,0.00,meteohub,2013-03-09 20:38:00,
2013-03-09 12:43:00,60.4,28.9,30.30,NNE,19,7.0,21.0,30,0.00,,,0.00,meteohub,2013-03-09 20:43:00,
2013-03-09 12:48:00,60.6,30.6,30.30,NNE,30,7.0,23.0,32,0.00,,,0.00,meteohub,2013-03-09 20:48:00,
2013-03-09 12:53:00,61.0,30.2,30.30,NNE,30,9.0,23.0,31,0.00,,,0.00,meteohub,2013-03-09 20:53:00,
2013-03-09 12:58:00,61.0,29.3,30.30,NE,51,6.0,23.0,30,0.00,,,0.00,meteohub,2013-03-09 20:58:00,
2013-03-09 13:03:00,61.2,28.6,30.30,ENE,57,12.0,16.0,29,0.00,,,0.00,meteohub,2013-03-09 21:03:00,
2013-03-09 13:08:00,61.5,31.5,30.30,North,349,6.0,16.0,32,0.00,,,0.00,meteohub,2013-03-09 21:08:00,
2013-03-09 13:13:00,61.9,30.0,30.30,ENE,65,9.0,16.0,30,0.00,,,0.00,meteohub,2013-03-09 21:13:00,
2013-03-09 13:18:00,61.3,28.8,30.30,NE,36,7.0,17.0,29,0.00,,,0.00,meteohub,2013-03-09 21:18:00,
2013-03-09 13:23:00,61.5,28.9,30.30,NNE,22,6.0,17.0,29,0.00,,,0.00,meteohub,2013-03-09 21:23:00,
2013-03-09 13:28:00,62.2,31.3,30.30,NE,49,7.0,17.0,31,0.00,,,0.00,meteohub,2013-03-09 21:28:00,
2013-03-09 13:33:00,62.4,32.2,30.29,NE,34,7.0,17.0,32,0.00,,,0.00,meteohub,2013-03-09 21:33:00,
2013-03-09 13:38:00,62.8,30.0,30.29,NNE,32,7.0,14.0,29,0.00,,,0.00,meteohub,2013-03-09 21:38:00,
2013-03-09 13:43:00,63.0,29.3,30.29,WNW,288,8.0,15.0,28,0.00,,,0.00,meteohub,2013-03-09 21:43:00,
2013-03-09 13:48:00,62.8,29.1,30.29,NNE,17,5.0,15.0,28,0.00,,,0.00,meteohub,2013-03-09 21:48:00,
2013-03-09 13:53:00,62.8,30.0,30.29,NE,56,4.0,16.0,29,0.00,,,0.00,meteohub,2013-03-09 21:53:00,
2013-03-09 13:58:00,62.8,30.0,30.29,NNE,30,8.0,16.0,29,0.00,,,0.00,meteohub,2013-03-09 21:58:00,
2013-03-09 14:04:00,62.8,27.3,30.29,NNE,15,8.0,17.0,26,0.00,,,0.00,meteohub,2013-03-09 22:04:00,
2013-03-09 14:09:00,62.8,27.3,30.29,NNE,21,6.0,17.0,26,0.00,,,0.00,meteohub,2013-03-09 22:09:00,
2013-03-09 14:14:00,63.0,26.6,30.30,NNE,19,8.0,17.0,25,0.00,,,0.00,meteohub,2013-03-09 22:14:00,
2013-03-09 14:19:00,63.0,25.5,30.30,NE,44,3.0,17.0,24,0.00,,,0.00,meteohub,2013-03-09 22:19:00,
2013-03-09 14:24:00,63.3,28.8,30.30,NE,40,10.0,17.0,27,0.00,,,0.00,meteohub,2013-03-09 22:24:00,
2013-03-09 14:29:00,63.7,29.1,30.30,NW,325,5.0,17.0,27,0.00,,,0.00,meteohub,2013-03-09 22:29:00,
2013-03-09 14:34:00,64.0,28.4,30.30,NNW,347,4.0,13.0,26,0.00,,,0.00,meteohub,2013-03-09 22:34:00,
2013-03-09 14:39:00,63.9,28.2,30.30,NW,317,9.0,10.0,26,0.00,,,0.00,meteohub,2013-03-09 22:39:00,
2013-03-09 14:44:00,64.2,29.5,30.30,North,0,5.0,14.0,27,0.00,,,0.00,meteohub,2013-03-09 22:44:00,
2013-03-09 14:49:00,64.6,28.9,30.30,NNW,341,6.0,14.0,26,0.00,,,0.00,meteohub,2013-03-09 22:49:00,
2013-03-09 14:54:00,64.6,28.0,30.30,NW,309,5.0,14.0,25,0.00,,,0.00,meteohub,2013-03-09 22:54:00,
2013-03-09 14:59:00,64.6,25.9,30.29,NW,309,7.0,11.0,23,0.00,,,0.00,meteohub,2013-03-09 22:59:00,
2013-03-09 15:04:00,64.0,26.6,30.29,WNW,301,3.0,11.0,24,0.00,,,0.00,meteohub,2013-03-09 23:04:00,
2013-03-09 15:09:00,64.2,26.6,30.29,NNE,32,6.0,11.0,24,0.00,,,0.00,meteohub,2013-03-09 23:09:00,
2013-03-09 15:14:00,64.2,26.6,30.29,ENE,63,7.0,10.0,24,0.00,,,0.00,meteohub,2013-03-09 23:14:00,
2013-03-09 15:19:00,64.4,28.8,30.29,North,9,5.0,12.0,26,0.00,,,0.00,meteohub,2013-03-09 23:19:00,
2013-03-09 15:24:00,64.0,25.5,30.29,WNW,294,3.0,12.0,23,0.00,,,0.00,meteohub,2013-03-09 23:24:00,
2013-03-09 15:29:00,64.2,28.6,30.28,ENE,57,9.0,12.0,26,0.00,,,0.00,meteohub,2013-03-09 23:29:00,
2013-03-09 15:34:00,64.2,26.6,30.29,NE,44,3.0,12.0,24,0.00,,,0.00,meteohub,2013-03-09 23:34:00,
2013-03-09 15:39:00,64.4,27.9,30.29,East,83,3.0,12.0,25,0.00,,,0.00,meteohub,2013-03-09 23:39:00,
2013-03-09 15:44:00,64.2,26.6,30.28,ENE,71,5.0,10.0,24,0.00,,,0.00,meteohub,2013-03-09 23:44:00,
2013-03-09 15:49:00,64.6,28.0,30.29,NNW,338,3.0,10.0,25,0.00,,,0.00,meteohub,2013-03-09 23:49:00,
2013-03-09 15:54:00,64.2,27.7,30.29,NE,53,3.0,10.0,25,0.00,,,0.00,meteohub,2013-03-09 23:54:00,
2013-03-09 15:59:00,64.4,27.9,30.29,WNW,296,3.0,9.0,25,0.00,,,0.00,meteohub,2013-03-09 23:59:00,
2013-03-09 16:04:00,64.2,26.6,30.29,NE,49,3.0,10.0,24,0.00,,,0.00,meteohub,2013-03-10 00:04:00,
2013-03-09 16:09:00,64.2,27.7,30.29,WNW,292,1.0,10.0,25,0.00,,,0.00,meteohub,2013-03-10 00:09:00,
2013-03-09 16:14:00,64.2,29.5,30.28,South,188,1.0,10.0,27,0.00,,,0.00,meteohub,2013-03-10 00:14:00,
2013-03-09 16:19:00,63.9,34.2,30.28,NW,304,6.0,6.0,33,0.00,,,0.00,meteohub,2013-03-10 00:19:00,
2013-03-09 16:24:00,63.7,36.1,30.28,WSW,246,2.0,7.0,36,0.00,,,0.00,meteohub,2013-03-10 00:24:00,
2013-03-09 16:29:00,63.7,36.1,30.28,West,263,5.0,7.0,36,0.00,,,0.00,meteohub,2013-03-10 00:29:00,
2013-03-09 16:34:00,63.5,36.1,30.28,West,265,3.0,10.0,36,0.00,,,0.00,meteohub,2013-03-10 00:34:00,
2013-03-09 16:39:00,63.5,35.4,30.28,NW,322,2.0,10.0,35,0.00,,,0.00,meteohub,2013-03-10 00:39:00,
2013-03-09 16:44:00,63.5,34.7,30.28,NW,319,2.0,10.0,34,0.00,,,0.00,meteohub,2013-03-10 00:44:00,
2013-03-09 16:49:00,63.7,35.6,30.28,NNW,339,3.0,6.0,35,0.00,,,0.00,meteohub,2013-03-10 00:49:00,
2013-03-09 16:54:00,63.5,35.4,30.28,NW,322,3.0,6.0,35,0.00,,,0.00,meteohub,2013-03-10 00:54:00,
2013-03-09 16:59:00,63.3,36.0,30.28,NW,320,3.0,6.0,36,0.00,,,0.00,meteohub,2013-03-10 00:59:00,
2013-03-09 17:04:00,63.3,34.5,30.28,NNW,345,4.0,6.0,34,0.00,,,0.00,meteohub,2013-03-10 01:04:00,
2013-03-09 17:09:00,63.1,34.3,30.29,WNW,299,2.0,6.0,34,0.00,,,0.00,meteohub,2013-03-10 01:09:00,
2013-03-09 17:14:00,63.0,34.2,30.29,WNW,300,2.0,6.0,34,0.00,,,0.00,meteohub,2013-03-10 01:14:00,
2013-03-09 17:19:00,62.8,34.0,30.29,WNW,301,1.0,6.0,34,0.00,,,0.00,meteohub,2013-03-10 01:19:00,
2013-03-09 17:24:00,62.6,34.5,30.29,WNW,282,3.0,6.0,35,0.00,,,0.00,meteohub,2013-03-10 01:24:00,
2013-03-09 17:29:00,62.4,35.1,30.29,West,267,2.0,6.0,36,0.00,,,0.00,meteohub,2013-03-10 01:29:00,
2013-03-09 17:34:00,62.2,34.9,30.29,West,267,2.0,6.0,36,0.00,,,0.00,meteohub,2013-03-10 01:34:00,
2013-03-09 17:39:00,61.9,36.0,30.29,West,267,2.0,5.0,38,0.00,,,0.00,meteohub,2013-03-10 01:39:00,
2013-03-09 17:44:00,61.5,35.1,30.29,West,267,2.0,5.0,37,0.00,,,0.00,meteohub,2013-03-10 01:44:00,
2013-03-09 17:49:00,61.2,34.7,30.29,West,267,1.0,4.0,37,0.00,,,0.00,meteohub,2013-03-10 01:49:00,
2013-03-09 17:54:00,61.0,37.8,30.29,West,266,2.0,4.0,42,0.00,,,0.00,meteohub,2013-03-10 01:54:00,
2013-03-09 17:59:00,60.4,37.8,30.29,West,266,2.0,4.0,43,0.00,,,0.00,meteohub,2013-03-10 01:59:00,
2013-03-09 18:04:00,59.9,38.5,30.29,West,266,0.0,4.0,45,0.00,,,0.00,meteohub,2013-03-10 02:04:00,
2013-03-09 18:09:00,59.2,38.5,30.30,West,266,0.0,4.0,46,0.00,,,0.00,meteohub,2013-03-10 02:09:00,
2013-03-09 18:14:00,58.6,39.0,30.30,West,266,1.0,4.0,48,0.00,,,0.00,meteohub,2013-03-10 02:14:00,
2013-03-09 18:19:00,58.3,39.7,30.30,West,266,2.0,3.0,50,0.00,,,0.00,meteohub,2013-03-10 02:19:00,
2013-03-09 18:24:00,58.1,39.6,30.30,West,266,2.0,3.0,50,0.00,,,0.00,meteohub,2013-03-10 02:24:00,
2013-03-09 18:29:00,56.8,39.4,30.30,NE,40,2.0,3.0,52,0.00,,,0.00,meteohub,2013-03-10 02:29:00,
2013-03-09 18:34:00,55.8,38.8,30.31,NE,40,0.0,4.0,53,0.00,,,0.00,meteohub,2013-03-10 02:34:00,
2013-03-09 18:39:00,55.2,38.3,30.31,SW,216,0.0,4.0,53,0.00,,,0.00,meteohub,2013-03-10 02:39:00,
2013-03-09 18:44:00,55.0,39.2,30.31,SW,216,2.0,4.0,55,0.00,,,0.00,meteohub,2013-03-10 02:44:00,
2013-03-09 18:49:00,54.7,39.4,30.31,SW,216,0.0,3.0,56,0.00,,,0.00,meteohub,2013-03-10 02:49:00,
2013-03-09 18:54:00,54.0,39.0,30.31,SW,216,0.0,3.0,57,0.00,,,0.00,meteohub,2013-03-10 02:54:00,
2013-03-09 18:59:00,53.6,39.2,30.31,SW,216,0.0,3.0,58,0.00,,,0.00,meteohub,2013-03-10 02:59:00,
2013-03-09 19:04:00,53.1,39.2,30.31,SW,216,0.0,3.0,59,0.00,,,0.00,meteohub,2013-03-10 03:04:00,
2013-03-09 19:09:00,52.3,38.8,30.31,SW,216,0.0,3.0,60,0.00,,,0.00,meteohub,2013-03-10 03:09:00,
2013-03-09 19:14:00,52.0,39.0,30.31,SW,216,0.0,2.0,61,0.00,,,0.00,meteohub,2013-03-10 03:14:00,
2013-03-09 19:19:00,51.3,39.0,30.31,SW,216,2.0,2.0,63,0.00,,,0.00,meteohub,2013-03-10 03:19:00,
2013-03-09 19:24:00,50.5,38.5,30.31,SW,216,3.0,3.0,63,0.00,,,0.00,meteohub,2013-03-10 03:24:00,
2013-03-09 19:29:00,50.2,38.5,30.31,SW,216,1.0,4.0,64,0.00,,,0.00,meteohub,2013-03-10 03:29:00,
2013-03-09 19:35:00,49.5,38.1,30.31,SW,216,2.0,4.0,65,0.00,,,0.00,meteohub,2013-03-10 03:35:00,
2013-03-09 19:40:00,48.9,38.1,30.32,SW,216,2.0,4.0,66,0.00,,,0.00,meteohub,2013-03-10 03:40:00,
2013-03-09 19:45:00,48.6,37.8,30.32,SW,216,2.0,3.0,66,0.00,,,0.00,meteohub,2013-03-10 03:45:00,
2013-03-09 19:50:00,47.8,37.4,30.32,SW,216,0.0,3.0,67,0.00,,,0.00,meteohub,2013-03-10 03:50:00,
2013-03-09 19:55:00,47.7,36.9,30.32,SW,216,3.0,3.0,66,0.00,,,0.00,meteohub,2013-03-10 03:55:00,
2013-03-09 20:00:00,46.9,35.1,30.31,SW,216,3.0,4.0,63,0.00,,,0.00,meteohub,2013-03-10 04:00:00,
2013-03-09 20:05:00,46.8,36.3,30.32,SW,216,3.0,4.0,67,0.00,,,0.00,meteohub,2013-03-10 04:05:00,
2013-03-09 20:10:00,46.4,34.9,30.31,SW,216,3.0,4.0,64,0.00,,,0.00,meteohub,2013-03-10 04:10:00,
2013-03-09 20:15:00,46.2,34.7,30.32,SW,216,2.0,4.0,64,0.00,,,0.00,meteohub,2013-03-10 04:15:00,
2013-03-09 20:20:00,46.0,34.2,30.32,SW,216,2.0,4.0,63,0.00,,,0.00,meteohub,2013-03-10 04:20:00,
2013-03-09 20:25:00,45.7,33.4,30.32,SW,216,0.0,4.0,62,0.00,,,0.00,meteohub,2013-03-10 04:25:00,
2013-03-09 20:30:00,45.5,33.6,30.32,SW,216,0.0,4.0,63,0.00,,,0.00,meteohub,2013-03-10 04:30:00,
2013-03-09 20:35:00,45.1,32.0,30.32,SW,216,0.0,3.0,60,0.00,,,0.00,meteohub,2013-03-10 04:35:00,
2013-03-09 20:40:00,45.5,34.9,30.32,WNW,300,4.0,4.0,66,0.00,,,0.00,meteohub,2013-03-10 04:40:00,
2013-03-09 20:45:00,46.2,36.0,30.33,NW,321,0.0,5.0,67,0.00,,,0.00,meteohub,2013-03-10 04:45:00,
2013-03-09 20:50:00,47.5,35.6,30.32,NE,51,1.0,5.0,63,0.00,,,0.00,meteohub,2013-03-10 04:50:00,
2013-03-09 20:55:00,48.0,34.9,30.33,NE,51,2.0,4.0,60,0.00,,,0.00,meteohub,2013-03-10 04:55:00,
2013-03-09 21:00:00,48.2,34.2,30.33,NE,51,1.0,4.0,58,0.00,,,0.00,meteohub,2013-03-10 05:00:00,
2013-03-09 21:01:00,48.2,34.2,30.33,NE,51,2.0,4.0,58,0.00,,,0.00,meteohub,2013-03-10 05:01:00,
2013-03-09 21:06:00,48.0,35.2,30.33,ENE,62,2.0,4.0,61,0.00,,,0.00,meteohub,2013-03-10 05:06:00,
2013-03-09 21:11:00,47.7,34.9,30.33,NE,44,3.0,4.0,61,0.00,,,0.00,meteohub,2013-03-10 05:11:00,
2013-03-09 21:16:00,46.9,34.5,30.33,NE,45,3.0,4.0,62,0.00,,,0.00,meteohub,2013-03-10 05:16:00,
2013-03-09 21:21:00,46.4,35.2,30.33,NE,44,2.0,5.0,65,0.00,,,0.00,meteohub,2013-03-10 05:21:00,
2013-03-09 21:26:00,46.2,35.1,30.34,ENE,76,1.0,5.0,65,0.00,,,0.00,meteohub,2013-03-10 05:26:00,
2013-03-09 21:31:00,46.8,35.2,30.34,NNW,340,0.0,5.0,64,0.00,,,0.00,meteohub,2013-03-10 05:31:00,
2013-03-09 21:36:00,47.8,35.8,30.34,North,5,2.0,5.0,63,0.00,,,0.00,meteohub,2013-03-10 05:36:00,
2013-03-09 21:41:00,49.1,36.3,30.33,NNE,13,0.0,5.0,61,0.00,,,0.00,meteohub,2013-03-10 05:41:00,
2013-03-09 21:46:00,49.6,36.0,30.34,NNE,13,2.0,5.0,59,0.00,,,0.00,meteohub,2013-03-10 05:46:00,
2013-03-09 21:51:00,49.6,36.0,30.34,NNE,13,0.0,3.0,59,0.00,,,0.00,meteohub,2013-03-10 05:51:00,
2013-03-09 21:56:00,49.5,35.8,30.34,NNE,13,3.0,3.0,59,0.00,,,0.00,meteohub,2013-03-10 05:56:00,
2013-03-09 22:01:00,49.3,36.0,30.34,NNE,13,3.0,3.0,60,0.00,,,0.00,meteohub,2013-03-10 06:01:00,
2013-03-09 22:06:00,48.7,36.3,30.33,NE,42,3.0,4.0,62,0.00,,,0.00,meteohub,2013-03-10 06:06:00,
2013-03-09 22:11:00,47.7,35.6,30.33,NE,42,3.0,5.0,63,0.00,,,0.00,meteohub,2013-03-10 06:11:00,
2013-03-09 22:16:00,47.1,35.2,30.33,NE,42,4.0,5.0,63,0.00,,,0.00,meteohub,2013-03-10 06:16:00,
2013-03-09 22:21:00,46.9,35.1,30.33,NE,42,4.0,5.0,63,0.00,,,0.00,meteohub,2013-03-10 06:21:00,
2013-03-09 22:26:00,46.2,34.7,30.33,NE,44,4.0,5.0,64,0.00,,,0.00,meteohub,2013-03-10 06:26:00,
2013-03-09 22:31:00,46.8,34.0,30.33,ENE,57,4.0,5.0,61,0.00,,,0.00,meteohub,2013-03-10 06:31:00,
2013-03-09 22:36:00,48.0,34.3,30.33,NE,37,3.0,5.0,59,0.00,,,0.00,meteohub,2013-03-10 06:36:00,
2013-03-09 22:41:00,47.8,34.2,30.33,NNE,27,4.0,5.0,59,0.00,,,0.00,meteohub,2013-03-10 06:41:00,
2013-03-09 22:46:00,47.5,33.4,30.33,NNE,23,4.0,5.0,58,0.00,,,0.00,meteohub,2013-03-10 06:46:00,
2013-03-09 22:51:00,47.8,34.2,30.33,NE,53,5.0,6.0,59,0.00,,,0.00,meteohub,2013-03-10 06:51:00,
2013-03-09 22:56:00,46.9,34.2,30.33,NNE,28,5.0,6.0,61,0.00,,,0.00,meteohub,2013-03-10 06:56:00,
2013-03-09 23:01:00,46.6,34.7,30.33,NE,45,6.0,6.0,63,0.00,,,0.00,meteohub,2013-03-10 07:01:00,
2013-03-09 23:06:00,47.5,34.7,30.33,NE,34,6.0,8.0,61,0.00,,,0.00,meteohub,2013-03-10 07:06:00,
2013-03-09 23:11:00,47.3,34.5,30.33,NNE,24,5.0,8.0,61,0.00,,,0.00,meteohub,2013-03-10 07:11:00,
2013-03-09 23:16:00,46.8,34.9,30.33,NNE,15,6.0,8.0,63,0.00,,,0.00,meteohub,2013-03-10 07:16:00,
2013-03-09 23:21:00,45.9,34.0,30.33,NNE,32,7.0,7.0,63,0.00,,,0.00,meteohub,2013-03-10 07:21:00,
2013-03-09 23:26:00,47.5,34.7,30.33,NNE,12,5.0,8.0,61,0.00,,,0.00,meteohub,2013-03-10 07:26:00,
2013-03-09 23:31:00,49.1,33.6,30.33,NE,44,6.0,9.0,55,0.00,,,0.00,meteohub,2013-03-10 07:31:00,
2013-03-09 23:36:00,51.3,33.3,30.33,North,0,5.0,9.0,50,0.00,,,0.00,meteohub,2013-03-10 07:36:00,
2013-03-09 23:41:00,52.9,33.3,30.34,North,9,4.0,9.0,47,0.00,,,0.00,meteohub,2013-03-10 07:41:00,
2013-03-09 23:46:00,53.2,32.4,30.33,NE,49,3.0,9.0,45,0.00,,,0.00,meteohub,2013-03-10 07:46:00,
2013-03-09 23:51:00,53.6,31.6,30.33,NNE,21,4.0,8.0,43,0.00,,,0.00,meteohub,2013-03-10 07:51:00,
2013-03-09 23:56:00,53.8,31.8,30.33,NNE,22,4.0,8.0,43,0.00,,,0.00,meteohub,2013-03-10 07:56:00,